Fort Polk, LA

6:46 AM CDT on October 16, 2019 (GMT -0500)
Fort Polk

Weather History for KAQV - August, 2019

Change the Weather History Date:

Saturday, August 17, 2019

  Actual Average (WUND) Record (WUND)
Temperature  
Mean Temperature 82 °F -  
Max Temperature 93 °F - - (-1)
Min Temperature 73 °F - - (-1)
Cooling Degree Days 17    
Growing Degree Days 32 (Base 50)    
Moisture  
Dew Point 74 °F    
Average Humidity 77    
Maximum Humidity 93    
Minimum Humidity 54    
Precipitation  
Precipitation 0.00 in - - ()
Sea Level Pressure  
Sea Level Pressure 29.90 in    
Wind  
Wind Speed 2 mph (South)    
Max Wind Speed 10 mph    
Max Gust Speed 20 mph    
Visibility 9 miles    
Events Thunderstorm    
Averages and records for this station are not official NWS values.
T = Trace of Precipitation, MM = Missing Value Source: NWS Daily Summary

Daily Weather History Graph

Daily Weather History Graph

Search for Another Location

Airport or City:

Astronomy

Aug. 17, 2019 Rise Set
Actual Time 6:39 AM CDT 7:54 PM CDT
Civil Twilight 6:14 AM CDT 8:19 PM CDT
Nautical Twilight 5:43 AM CDT 8:49 PM CDT
Astronomical Twilight 5:12 AM CDT 9:21 PM CDT
Moon 9:28 PM CDT (8/17) 8:24 AM CDT (8/17)
Length of Visible Light 14h 05m
Length of Day
13h 14m
Waning Gibbous, 96% of the Moon is Illuminated
Aug 17
Waning Gibbous
Aug 23
Last Quarter
Aug 30
New
Sep 5
First Quarter
Sep 13
Full

Hourly Weather History & Observations

Time (CDT) Temp. Heat Index Dew Point Humidity Pressure Visibility Wind Dir Wind Speed Gust Speed Precip Events Conditions
12:56 AM 77.0 °F - 73.0 °F 88% 29.93 in 10.0 mi Calm Calm - N/A   Clear
1:56 AM 75.9 °F - 73.0 °F 91% 29.92 in 10.0 mi Calm Calm - N/A   Clear
2:56 AM 77.0 °F - 73.0 °F 88% 29.92 in 10.0 mi Calm Calm - N/A   Clear
3:56 AM 75.9 °F - 73.0 °F 91% 29.91 in 9.0 mi Calm Calm - N/A   Clear
4:56 AM 73.9 °F - 72.0 °F 93% 29.89 in 4.0 mi Calm Calm - N/A   Clear
5:56 AM 73.0 °F - 71.1 °F 93% 29.88 in 4.0 mi Calm Calm - N/A   Clear
6:56 AM 73.9 °F - 72.0 °F 93% 29.91 in 2.5 mi Calm Calm - N/A   Clear
7:05 AM 73.9 °F - 72.0 °F 93% 29.93 in 3.0 mi Calm Calm - N/A   Clear
7:56 AM 78.1 °F - 75.0 °F 90% 29.93 in 7.0 mi South 3.5 mph - N/A   Clear
8:56 AM 84.0 °F 92.6 °F 75.9 °F 76% 29.94 in 10.0 mi Variable 3.5 mph - N/A   Partly Cloudy
9:56 AM 89.1 °F 99.1 °F 75.0 °F 63% 29.94 in 10.0 mi North - - N/A   Scattered Clouds
10:56 AM 90.0 °F 99.0 °F 73.9 °F 59% 29.94 in 10.0 mi Variable 4.6 mph - N/A   Scattered Clouds
11:56 AM 91.9 °F 100.7 °F 73.0 °F 54% 29.93 in 10.0 mi Variable 3.5 mph - N/A   Clear
12:56 PM 89.1 °F 96.0 °F 72.0 °F 57% 29.92 in 10.0 mi Variable 3.5 mph - N/A   Scattered Clouds
1:56 PM 90.0 °F 96.9 °F 72.0 °F 55% 29.90 in 10.0 mi Variable 3.5 mph - 0.00 in   Mostly Cloudy
2:56 PM 89.1 °F 97.0 °F 73.0 °F 59% 29.89 in 10.0 mi Variable 4.6 mph - N/A   Overcast
3:48 PM 87.1 °F 95.4 °F 73.9 °F 65% 29.90 in 10.0 mi Variable 6.9 mph - N/A Thunderstorm Thunderstorm
3:56 PM 87.1 °F 95.4 °F 73.9 °F 65% 29.89 in 10.0 mi South 10.4 mph 19.6 mph N/A Thunderstorm Thunderstorm
4:07 PM 86.0 °F 93.8 °F 73.9 °F 67% 29.89 in 10.0 mi South 9.2 mph 19.6 mph N/A   Clear
4:56 PM 82.0 °F 87.4 °F 73.0 °F 74% 29.87 in 10.0 mi South 3.5 mph - N/A   Partly Cloudy
5:56 PM 84.9 °F 91.4 °F 73.0 °F 67% 29.88 in 10.0 mi South 4.6 mph - N/A   Scattered Clouds
6:56 PM 86.0 °F 96.9 °F 77.0 °F 74% 29.86 in 10.0 mi Variable 3.5 mph - N/A   Clear
7:56 PM 82.9 °F 92.8 °F 78.1 °F 85% 29.87 in 10.0 mi Calm Calm - N/A   Partly Cloudy
8:56 PM 81.0 °F 87.9 °F 77.0 °F 88% 29.88 in 10.0 mi South 3.5 mph - N/A   Clear
9:56 PM 79.0 °F - 75.9 °F 90% 29.89 in 10.0 mi Calm Calm - N/A   Clear
11:56 PM 77.0 °F - 73.9 °F 90% 29.91 in 10.0 mi Calm Calm - N/A   Clear